�������l�o���
Date,Time,MP-1(��Sv/h),MP-2(��Sv/h),MP-3(��Sv/h),MP-4(��Sv/h),MP-5(��Sv/h),MP-6(��Sv/h),MP-7(��Sv/h),MP-8(��Sv/h),����,����(m/s),���J
2017/11/17,00:00,0.931,1.497,0.949,1.779,1.222,0.502,0.915,0.855,��,4.0,��
2017/11/17,00:10,0.929,1.500,0.950,1.778,1.224,0.503,0.917,0.855,��,6.4,��
2017/11/17,00:20,0.932,1.497,0.949,1.779,1.217,0.503,0.917,0.852,��,5.3,��
2017/11/17,00:30,0.929,1.500,0.950,1.777,1.222,0.502,0.918,0.855,�k��,5.0,��
2017/11/17,00:40,0.929,1.498,0.950,1.777,1.220,0.503,0.919,0.855,�k��,6.2,��
2017/11/17,00:50,0.931,1.499,0.949,1.774,1.220,0.502,0.918,0.854,���k��,6.0,��
2017/11/17,01:00,0.930,1.500,0.951,1.778,1.222,0.503,0.918,0.853,���k��,5.4,��
2017/11/17,01:10,0.930,1.498,0.950,1.780,1.219,0.501,0.916,0.854,��,4.1,��
2017/11/17,01:20,0.932,1.499,0.949,1.777,1.221,0.502,0.917,0.854,���쐼,3.9,��
2017/11/17,01:30,0.931,1.497,0.950,1.779,1.221,0.503,0.917,0.855,���쐼,3.0,��
2017/11/17,01:40,0.931,1.502,0.948,1.777,1.223,0.502,0.919,0.855,���쐼,3.3,��
2017/11/17,01:50,0.930,1.501,0.950,1.779,1.219,0.503,0.917,0.853,���쐼,2.6,��
2017/11/17,02:00,0.931,1.499,0.949,1.778,1.223,0.502,0.918,0.854,���쐼,3.1,��
2017/11/17,02:10,0.930,1.498,0.948,1.778,1.219,0.502,0.918,0.856,���쐼,2.3,��
2017/11/17,02:20,0.930,1.497,0.948,1.774,1.221,0.501,0.917,0.853,�쐼,3.3,��
2017/11/17,02:30,0.929,1.496,0.948,1.779,1.218,0.501,0.919,0.855,���쐼,4.0,��
2017/11/17,02:40,0.931,1.497,0.949,1.774,1.220,0.502,0.918,0.854,���쐼,3.2,��
2017/11/17,02:50,0.929,1.496,0.949,1.777,1.221,0.501,0.918,0.855,��,2.8,��
2017/11/17,03:00,0.929,1.497,0.948,1.776,1.220,0.502,0.917,0.853,�k��,2.2,��
2017/11/17,03:10,0.929,1.495,0.948,1.776,1.221,0.501,0.918,0.854,�k��,4.1,��
2017/11/17,03:20,0.929,1.498,0.949,1.773,1.218,0.503,0.915,0.854,�k��,3.2,��
2017/11/17,03:30,0.929,1.499,0.948,1.774,1.219,0.503,0.918,0.854,�k��,2.6,��
2017/11/17,03:40,0.929,1.497,0.948,1.776,1.218,0.501,0.915,0.855,���k��,1.1,��
2017/11/17,03:50,0.928,1.496,0.949,1.774,1.219,0.501,0.916,0.855,���쐼,0.6,��
2017/11/17,04:00,0.930,1.498,0.947,1.778,1.217,0.501,0.917,0.853,��,1.2,��
2017/11/17,04:10,0.929,1.498,0.949,1.776,1.222,0.501,0.915,0.852,�쐼,1.1,��
2017/11/17,04:20,0.928,1.496,0.950,1.777,1.218,0.502,0.915,0.855,�쐼,0.9,��
2017/11/17,04:30,0.929,1.496,0.946,1.776,1.219,0.501,0.914,0.854,�쐼,1.9,��
2017/11/17,04:40,0.929,1.496,0.949,1.775,1.221,0.501,0.915,0.855,���쐼,1.4,��
2017/11/17,04:50,0.929,1.497,0.947,1.775,1.220,0.502,0.916,0.853,���쐼,1.9,��
2017/11/17,05:00,0.927,1.497,0.948,1.772,1.221,0.499,0.914,0.854,���쐼,2.3,��
2017/11/17,05:10,0.928,1.495,0.947,1.774,1.221,0.501,0.915,0.853,��,1.4,��
2017/11/17,05:20,0.926,1.495,0.946,1.774,1.219,0.502,0.917,0.855,��,1.5,��
2017/11/17,05:30,0.929,1.496,0.947,1.774,1.219,0.501,0.915,0.854,��쓌,1.5,��
2017/11/17,05:40,0.928,1.496,0.948,1.773,1.218,0.502,0.916,0.852,���k��,0.9,��
2017/11/17,05:50,0.930,1.494,0.950,1.774,1.219,0.501,0.915,0.854,��,2.6,��
2017/11/17,06:00,0.931,1.498,0.947,1.774,1.218,0.501,0.914,0.853,��,2.3,��
2017/11/17,06:10,0.929,1.495,0.946,1.776,1.218,0.500,0.915,0.851,���쐼,2.0,��
2017/11/17,06:20,0.929,1.495,0.947,1.771,1.215,0.501,0.916,0.855,���쐼,2.9,��
2017/11/17,06:30,0.926,1.497,0.945,1.774,1.218,0.501,0.916,0.854,���쐼,2.6,��
2017/11/17,06:40,0.929,1.495,0.947,1.772,1.218,0.501,0.915,0.853,���쐼,1.9,��
2017/11/17,06:50,0.929,1.494,0.947,1.772,1.220,0.500,0.915,0.855,�쐼,0.6,��
2017/11/17,07:00,0.928,1.497,0.947,1.775,1.218,0.502,0.915,0.853,��,1.2,��
2017/11/17,07:10,0.928,1.498,0.945,1.775,1.218,0.501,0.918,0.853,�k��,0.9,��
2017/11/17,07:20,0.929,1.499,0.948,1.777,1.219,0.501,0.914,0.854,��,1.2,��
2017/11/17,07:30,0.928,1.497,0.948,1.774,1.215,0.502,0.916,0.853,�쐼,1.7,��
2017/11/17,07:40,0.928,1.498,0.949,1.775,1.218,0.501,0.914,0.856,���쐼,3.0,��
2017/11/17,07:50,0.926,1.497,0.948,1.774,1.217,0.501,0.915,0.853,���쐼,3.1,��
2017/11/17,08:00,0.930,1.496,0.947,1.776,1.221,0.502,0.918,0.855,��쐼,1.5,��
2017/11/17,08:10,0.931,1.497,0.949,1.776,1.218,0.502,0.916,0.854,��쓌,1.5,��
2017/11/17,08:20,0.931,1.495,0.949,1.776,1.220,0.501,0.917,0.853,��쓌,1.2,��
2017/11/17,08:30,0.931,1.497,0.947,1.777,1.220,0.501,0.917,0.855,-,CALM,��
2017/11/17,08:40,0.931,1.497,0.946,1.778,1.218,0.501,0.916,0.854,��,1.2,��
2017/11/17,08:50,0.931,1.499,0.949,1.776,1.217,0.502,0.918,0.855,��쐼,2.0,��
2017/11/17,09:00,0.932,1.497,0.950,1.777,1.219,0.501,0.920,0.854,���쐼,3.0,��
2017/11/17,09:10,0.931,1.495,0.951,1.779,1.221,0.500,0.917,0.854,�k,1.1,��
2017/11/17,09:20,0.931,1.498,0.951,1.778,1.218,0.503,0.917,0.854,���쐼,2.2,��
2017/11/17,09:30,0.933,1.494,0.948,1.778,1.224,0.503,0.915,0.855,-,CALM,��
2017/11/17,09:40,0.933,1.492,0.952,1.777,1.221,0.503,0.914,0.856,���쐼,0.9,��
2017/11/17,09:50,0.935,1.495,0.952,1.779,1.221,0.503,0.917,0.853,���k��,3.0,��
2017/11/17,10:00,0.933,1.495,0.953,1.779,1.222,0.503,0.916,0.855,���k��,2.8,��
2017/11/17,10:10,0.934,1.497,0.951,1.780,1.222,0.502,0.916,0.857,��,3.0,��
2017/11/17,10:20,0.932,1.496,0.949,1.781,1.221,0.501,0.917,0.856,��,1.5,��
2017/11/17,10:30,0.932,1.494,0.955,1.782,1.225,0.502,0.917,0.856,��쓌,2.9,��
2017/11/17,10:40,0.933,1.494,0.953,1.781,1.222,0.501,0.917,0.856,��쓌,3.7,��
2017/11/17,10:50,0.934,1.497,0.951,1.782,1.223,0.501,0.915,0.854,��쓌,4.6,��
2017/11/17,11:00,0.934,1.498,0.951,1.778,1.221,0.501,0.918,0.856,�쓌,3.5,��
2017/11/17,11:10,0.934,1.499,0.952,1.781,1.219,0.501,0.916,0.855,�쓌,2.6,��
2017/11/17,11:20,0.933,1.496,0.950,1.781,1.221,0.500,0.916,0.856,�쓌,3.6,��
2017/11/17,11:30,0.933,1.500,0.952,1.780,1.224,0.502,0.916,0.855,�쓌,3.1,��
2017/11/17,11:40,0.932,1.500,0.951,1.780,1.221,0.503,0.917,0.855,�쓌,2.2,��
2017/11/17,11:50,0.933,1.498,0.951,1.779,1.219,0.503,0.917,0.857,��,2.8,��
2017/11/17,12:00,0.932,1.498,0.953,1.779,1.222,0.502,0.916,0.858,���쓌,3.4,��
2017/11/17,12:10,0.932,1.497,0.954,1.781,1.223,0.503,0.917,0.857,�쓌,3.2,��
2017/11/17,12:20,0.934,1.496,0.953,1.778,1.223,0.504,0.916,0.856,���쓌,3.8,��
2017/11/17,12:30,0.932,1.504,0.951,1.783,1.221,0.502,0.917,0.857,�쓌,3.3,��
2017/11/17,12:40,0.933,1.498,0.954,1.781,1.221,0.504,0.918,0.857,��쓌,3.9,��
2017/11/17,12:50,0.932,1.495,0.953,1.779,1.225,0.506,0.916,0.855,�쓌,4.1,��
2017/11/17,13:00,0.932,1.494,0.953,1.785,1.222,0.505,0.917,0.853,�쓌,3.3,��
2017/11/17,13:10,0.934,1.497,0.951,1.782,1.223,0.503,0.917,0.853,��쓌,2.8,��
2017/11/17,13:20,0.932,1.496,0.952,1.781,1.223,0.504,0.918,0.852,���쓌,3.6,��
2017/11/17,13:30,0.933,1.497,0.953,1.780,1.223,0.502,0.916,0.852,�쓌,4.1,��
2017/11/17,13:40,0.933,1.498,0.953,1.780,1.222,0.503,0.919,0.853,�쓌,4.1,��
2017/11/17,13:50,0.934,1.499,0.954,1.781,1.221,0.503,0.920,0.853,�쓌,3.1,��
2017/11/17,14:00,0.931,1.497,0.954,1.780,1.222,0.503,0.918,0.853,�쓌,3.9,��
2017/11/17,14:10,0.931,1.497,0.952,1.781,1.224,0.504,0.920,0.854,�쓌,4.0,��
2017/11/17,14:20,0.933,1.498,0.951,1.781,1.224,0.503,0.919,0.853,�쓌,4.0,��
2017/11/17,14:30,0.935,1.499,0.951,1.782,1.228,0.503,0.921,0.852,�쓌,4.5,��
2017/11/17,14:40,0.931,1.500,0.950,1.779,1.227,0.503,0.917,0.853,�쓌,3.8,��
2017/11/17,14:50,0.933,1.498,0.954,1.780,1.225,0.502,0.920,0.856,��쓌,4.6,��
2017/11/17,15:00,0.934,1.501,0.955,1.781,1.226,0.505,0.919,0.856,��쓌,5.4,��
2017/11/17,15:10,0.934,1.501,0.954,1.782,1.226,0.505,0.920,0.856,��쓌,6.3,��
2017/11/17,15:20,0.934,1.504,0.955,1.780,1.226,0.503,0.919,0.856,��쓌,4.6,��
2017/11/17,15:30,0.936,1.505,0.953,1.782,1.227,0.503,0.919,0.857,��,4.3,��
2017/11/17,15:40,0.935,1.506,0.954,1.782,1.225,0.503,0.919,0.855,��,4.4,��
2017/11/17,15:50,0.935,1.506,0.954,1.781,1.227,0.503,0.919,0.855,��쓌,4.4,��
2017/11/17,16:00,0.934,1.505,0.951,1.781,1.226,0.503,0.918,0.853,��쓌,4.7,��
2017/11/17,16:10,0.934,1.504,0.952,1.784,1.226,0.501,0.918,0.857,��쓌,5.4,��
2017/11/17,16:20,0.931,1.503,0.953,1.779,1.226,0.503,0.918,0.855,��쓌,5.3,��
2017/11/17,16:30,0.934,1.504,0.952,1.779,1.227,0.502,0.917,0.856,��쓌,5.9,��
2017/11/17,16:40,0.932,1.504,0.953,1.779,1.226,0.504,0.920,0.858,��쓌,6.4,��
2017/11/17,16:50,0.932,1.503,0.952,1.781,1.226,0.503,0.920,0.855,��쓌,6.4,��
2017/11/17,17:00,0.931,1.506,0.952,1.780,1.223,0.501,0.920,0.855,��,7.0,��
2017/11/17,17:10,0.932,1.507,0.954,1.780,1.224,0.502,0.919,0.855,��,5.5,��
2017/11/17,17:20,0.932,1.505,0.952,1.781,1.226,0.502,0.918,0.856,��,5.9,��
2017/11/17,17:30,0.933,1.503,0.952,1.778,1.226,0.502,0.918,0.854,��,6.7,��
2017/11/17,17:40,0.933,1.505,0.953,1.778,1.225,0.501,0.918,0.855,��,7.9,��
2017/11/17,17:50,0.932,1.506,0.952,1.778,1.227,0.503,0.917,0.856,��,7.0,��
2017/11/17,18:00,0.933,1.505,0.951,1.777,1.223,0.502,0.918,0.855,��,6.2,��
2017/11/17,18:10,0.933,1.505,0.949,1.779,1.223,0.504,0.919,0.854,��,5.8,��
2017/11/17,18:20,0.934,1.503,0.953,1.777,1.223,0.503,0.916,0.856,��,6.3,��
2017/11/17,18:30,0.932,1.503,0.953,1.778,1.221,0.502,0.917,0.855,��,6.0,��
2017/11/17,18:40,0.931,1.503,0.952,1.777,1.225,0.501,0.917,0.854,��쐼,5.5,��
2017/11/17,18:50,0.932,1.501,0.954,1.777,1.226,0.501,0.917,0.856,��쐼,5.2,��
2017/11/17,19:00,0.934,1.505,0.951,1.779,1.222,0.502,0.918,0.856,��,4.7,��
2017/11/17,19:10,0.934,1.501,0.951,1.777,1.228,0.503,0.918,0.853,��,4.5,��
2017/11/17,19:20,0.932,1.503,0.951,1.777,1.222,0.503,0.918,0.854,��,4.5,��
2017/11/17,19:30,0.934,1.500,0.951,1.776,1.224,0.502,0.917,0.853,��쐼,3.9,��
2017/11/17,19:40,0.933,1.501,0.949,1.775,1.224,0.504,0.917,0.856,��쐼,4.0,��
2017/11/17,19:50,0.933,1.502,0.951,1.777,1.224,0.501,0.917,0.855,��쐼,4.1,��
2017/11/17,20:00,0.929,1.502,0.951,1.779,1.222,0.502,0.918,0.854,��쐼,4.4,��
2017/11/17,20:10,0.934,1.503,0.951,1.777,1.225,0.503,0.917,0.854,��쐼,4.5,��
2017/11/17,20:20,0.930,1.503,0.952,1.777,1.223,0.503,0.917,0.855,��,5.0,��
2017/11/17,20:30,0.935,1.500,0.951,1.777,1.222,0.501,0.917,0.854,��,5.7,��
2017/11/17,20:40,0.932,1.500,0.953,1.776,1.223,0.500,0.918,0.855,��,6.5,��
2017/11/17,20:50,0.932,1.500,0.950,1.776,1.225,0.501,0.915,0.856,��,6.6,��
2017/11/17,21:00,0.932,1.503,0.950,1.776,1.225,0.501,0.918,0.855,��,7.4,��
2017/11/17,21:10,0.934,1.502,0.950,1.780,1.224,0.503,0.915,0.853,��,7.6,��
2017/11/17,21:20,0.932,1.501,0.952,1.775,1.226,0.504,0.917,0.856,��,7.3,��
2017/11/17,21:30,0.933,1.499,0.955,1.777,1.225,0.502,0.917,0.854,��,6.3,��
2017/11/17,21:40,0.934,1.503,0.951,1.778,1.223,0.501,0.918,0.855,��,6.7,��
2017/11/17,21:50,0.934,1.504,0.952,1.775,1.226,0.502,0.917,0.855,��,7.4,��
2017/11/17,22:00,0.934,1.502,0.952,1.778,1.221,0.501,0.917,0.856,��,7.0,��
2017/11/17,22:10,0.934,1.505,0.952,1.779,1.224,0.502,0.916,0.854,��,7.8,��
2017/11/17,22:20,0.933,1.502,0.951,1.778,1.225,0.501,0.917,0.856,��,7.6,��
2017/11/17,22:30,0.933,1.501,0.952,1.777,1.227,0.502,0.919,0.855,��,7.1,��
2017/11/17,22:40,0.933,1.501,0.952,1.776,1.225,0.503,0.917,0.854,��,7.5,��
2017/11/17,22:50,0.935,1.501,0.953,1.780,1.223,0.502,0.918,0.855,��,7.7,��
2017/11/17,23:00,0.935,1.500,0.954,1.780,1.225,0.502,0.918,0.856,��,7.6,��
2017/11/17,23:10,0.935,1.502,0.953,1.776,1.226,0.504,0.918,0.856,��,7.8,��
2017/11/17,23:20,0.934,1.502,0.955,1.780,1.224,0.503,0.918,0.853,��,7.0,��
2017/11/17,23:30,0.931,1.499,0.954,1.779,1.225,0.504,0.916,0.855,��,7.7,��
2017/11/17,23:40,0.933,1.503,0.953,1.780,1.224,0.503,0.919,0.855,��,7.9,��
2017/11/17,23:50,0.934,1.502,0.954,1.777,1.223,0.504,0.921,0.856,��,7.0,��
